SL-16 DEB

Satellite information

Favourite Embed

Satellite Type and Status

DEBRISIN ORBIT

Key statistics

Satellite SL-16 DEB at a glance.

Uptime

14445

Days in orbit

Revolutions

≈ 13.8

Per day

Orbit

LEO

Low Earth Orbit

Inclination

71.0

Latest

Satellite identification and parameters

Extended collection of information and parameters for SL-16 DEB.

Object identification

Identified? True

Debris? True

Object name: SL-16 DEB

International designator: 1985-097C

Object number (NORAD): 16389

Object ID (CCSDS): 16389

Country: COMMONWEALTH OF INDEPENDENT STATES (CIS)

Current information (Y/N): Y

RCS size: SMALL

Orbital parameters

Period: 104.601 minutes

Inclination: 71.001 deg

SMA: 7353.902 km

Apoapsis: 1113.113 km

Periapsis: 838.42 km

RAAN: 237.672 deg

Eccentricy: 0.0186767

Argument of periapsis: 35.3024 deg

Mean anomaly: 326.0279 deg

Mean motion: 13.76657858 rev/day

Mean motion (dot): 0.00000054 rev/day2

B* drag term: 0.000086834 1/REarth

Two-line elements (TLE)

Creation date: May 10, 2025, 2:32 a.m.

Reference frame: TEME

Reference center: EARTH

Epoch: May 9, 2025, 5:33 p.m. UTC

TLE line 0: 0 SL-16 DEB

TLE line 1: 1 16389U 85097C 25129.73173624 .00000054 00000-0 86834-4 0 9990

TLE line 2: 2 16389 71.0010 237.6720 0186767 35.3024 326.0279 13.76657858985554

Live tracking on map

Real-time ground track for satellite SL-16 DEB.

In-orbit conjunctions

A list of the most updated potential collisions computed for object SL-16 DEB.

Target Orbit TCA Probability of collision Miss distance Type
THORAD AGENA D DEB SSO 2025-01-29 18:39:18 0.0003628004 56.0 (m) DEBRIS
FENGYUN 1C DEB SSO 2024-08-13 12:20:26 0.0001839811 65.0 (m) DEBRIS

Associated space launch

Dynamic simulator of the Tselina-2 ELINT satellite

SL-16 DEB was lifted into orbit during the mission ‘Zenit-2 | GVM Tselina-2’, on board a Zenit-2 space rocket.

The launch took place on Oct. 22, 1985, 7 a.m. from 45/1.

For more information about the launch, click the button.

Launch to space Zenit-2 | GVM Tselina-2
Zenit-2 | GVM Tselina-2

Agency: N/A

Status: Launch Successful

Launch date: Oct. 22, 1985, 7 a.m. UTC

Rocket: Zenit-2

Launch pad: 45/1

Location: Baikonur Cosmodrome, Republic of Kazakhstan

...

Latest news about this satellite

There are no fresh news available about this satellite. Check back as we update our databases every day.


Newsletter sign-up

Weekly statistics, charts and insights to help you stay on top of the space industry.